Location: Unspecified
(50.7693°N, 0.0000°E)
Time: 14:01:22
(UTC+00:00)

Transit 2A - Pass Details

Date: 29 June 2019
Orbit: 594 x 965 km, 66.7° (Epoch: 16 July)

Event Time Altitude Azimuth Distance (km) Brightness Sun altitude
Exits shadow 23:18:23 - 224° (SW) 3,434 9.0 -15.4°
Reaches altitude 10° 23:20:25 10° 226° (SW) 2,698 8.5 -15.4°
Maximum altitude 23:26:47 71° 310° (NW) 1,004 6.7 -15.6°
Drops below altitude 10° 23:32:54 10° 35° (NE) 2,597 9.4 -15.7°
Sets 23:35:22 0° 38° (NE) 3,496 10.1 -15.8°
